Powrót do katalogu

PSLV DEB

AktywnySSO
NORAD 27124·DEBRIS·🇮🇳 India

Wystrzelony Oct 22, 2001 z Satish Dhawan Space Centre

Loading…

Następne Przeloty (najbliższe 24 godziny)

TLE

ŚwieżeSource: Space-Track

Epoka: Sep 14, 2026, 15:39 UTC

1 27124U 01049BU  26257.65241332  .00002140  00000-0  20666-3 0  9998
2 27124  98.0431 326.4127 0029494 110.3185  49.7322 14.93654310333085

Śledź PSLV DEB w czasie rzeczywistym z AllMySat

Download on the App Store